TimeMST,TemperatureF,Dew PointF,Humidity,Sea Level PressureIn,VisibilityMPH,Wind Direction,Wind SpeedMPH,Gust SpeedMPH,PrecipitationIn,Events,Conditions,WindDirDegrees,DateUTC
12:15 AM,28.4,24.8,86,30.24,10.0,Calm,Calm,-,N/A,,Clear,0,2012-11-15 07:15:00
12:35 AM,26.6,21.2,80,30.24,10.0,South,5.8,-,N/A,,Clear,170,2012-11-15 07:35:00
12:55 AM,24.8,21.2,86,30.24,10.0,SSE,5.8,-,N/A,,Clear,160,2012-11-15 07:55:00
1:15 AM,26.6,23.0,86,30.23,10.0,Calm,Calm,-,N/A,,Clear,0,2012-11-15 08:15:00
1:35 AM,26.6,21.2,80,30.24,10.0,NW,4.6,-,N/A,,Clear,310,2012-11-15 08:35:00
1:55 AM,26.6,21.2,80,30.24,10.0,Calm,Calm,-,N/A,,Clear,0,2012-11-15 08:55:00
2:15 AM,26.6,19.4,74,30.24,10.0,SSW,3.5,-,N/A,,Clear,200,2012-11-15 09:15:00
2:55 AM,28.4,23.0,80,30.25,10.0,Calm,Calm,-,N/A,,Clear,0,2012-11-15 09:55:00
3:15 AM,28.4,23.0,80,30.25,10.0,SSW,12.7,-,N/A,,Clear,200,2012-11-15 10:15:00
3:35 AM,28.4,23.0,80,30.25,10.0,SSW,15.0,-,N/A,,Clear,210,2012-11-15 10:35:00
3:55 AM,28.4,23.0,80,30.25,10.0,SSW,11.5,-,N/A,,Clear,210,2012-11-15 10:55:00
4:35 AM,28.4,23.0,80,30.26,10.0,SSW,13.8,-,N/A,,Clear,200,2012-11-15 11:35:00
4:55 AM,30.2,21.2,69,30.26,10.0,SSW,13.8,-,N/A,,Clear,200,2012-11-15 11:55:00
5:15 AM,28.4,21.2,74,30.26,10.0,SSW,12.7,-,N/A,,Clear,210,2012-11-15 12:15:00
5:35 AM,28.4,19.4,69,30.26,10.0,SSW,12.7,-,N/A,,Clear,210,2012-11-15 12:35:00
5:55 AM,28.4,19.4,69,30.26,10.0,SSW,13.8,-,N/A,,Clear,210,2012-11-15 12:55:00
6:15 AM,28.4,21.2,74,30.26,10.0,SSW,15.0,-,N/A,,Clear,200,2012-11-15 13:15:00
6:35 AM,28.4,19.4,69,30.26,10.0,SSW,13.8,-,N/A,,Clear,200,2012-11-15 13:35:00
6:55 AM,28.4,19.4,69,30.27,10.0,SSW,11.5,-,N/A,,Clear,210,2012-11-15 13:55:00
7:15 AM,28.4,19.4,69,30.27,10.0,SSW,12.7,-,N/A,,Clear,210,2012-11-15 14:15:00
7:35 AM,30.2,17.6,60,30.27,10.0,SSW,15.0,-,N/A,,Clear,210,2012-11-15 14:35:00
7:55 AM,30.2,19.4,64,30.28,10.0,SSW,16.1,-,N/A,,Clear,200,2012-11-15 14:55:00
8:15 AM,32.0,19.4,60,30.28,10.0,SSW,15.0,-,N/A,,Clear,200,2012-11-15 15:15:00
8:35 AM,33.8,19.4,56,30.27,10.0,SSW,13.8,-,N/A,,Clear,200,2012-11-15 15:35:00
9:15 AM,35.6,19.4,52,30.27,10.0,SSW,18.4,-,N/A,,Clear,210,2012-11-15 16:15:00
9:35 AM,37.4,19.4,48,30.27,10.0,SSW,19.6,24.2,N/A,,Clear,210,2012-11-15 16:35:00
9:55 AM,39.2,19.4,45,30.27,10.0,SSW,18.4,-,N/A,,Clear,210,2012-11-15 16:55:00
10:15 AM,39.2,19.4,45,30.27,10.0,SSW,17.3,-,N/A,,Clear,210,2012-11-15 17:15:00
10:55 AM,42.8,19.4,39,30.25,10.0,SSW,16.1,-,N/A,,Clear,200,2012-11-15 17:55:00
11:15 AM,42.8,19.4,39,30.24,10.0,SSW,16.1,19.6,N/A,,Clear,210,2012-11-15 18:15:00
11:35 AM,44.6,17.6,34,30.23,10.0,SSW,15.0,23.0,N/A,,Clear,200,2012-11-15 18:35:00
11:55 AM,44.6,17.6,34,30.21,10.0,South,12.7,-,N/A,,Clear,180,2012-11-15 18:55:00
12:15 PM,44.6,17.6,34,30.20,10.0,South,13.8,-,N/A,,Clear,190,2012-11-15 19:15:00
12:35 PM,44.6,17.6,34,30.19,10.0,SSE,11.5,20.7,N/A,,Clear,160,2012-11-15 19:35:00
12:55 PM,44.6,17.6,34,30.18,10.0,South,12.7,-,N/A,,Clear,170,2012-11-15 19:55:00
1:15 PM,46.4,19.4,34,30.18,10.0,SSE,15.0,-,N/A,,Clear,150,2012-11-15 20:15:00
1:35 PM,46.4,17.6,32,30.17,10.0,South,9.2,-,N/A,,Clear,170,2012-11-15 20:35:00
1:55 PM,46.4,17.6,32,30.17,10.0,South,8.1,-,N/A,,Clear,170,2012-11-15 20:55:00
2:15 PM,46.4,17.6,32,30.17,10.0,SSE,11.5,16.1,N/A,,Clear,160,2012-11-15 21:15:00
2:35 PM,46.4,17.6,32,30.16,10.0,SSE,10.4,-,N/A,,Clear,160,2012-11-15 21:35:00
2:55 PM,46.4,19.4,34,30.15,10.0,SSE,12.7,-,N/A,,Clear,150,2012-11-15 21:55:00
3:15 PM,44.6,19.4,37,30.15,10.0,SSE,15.0,-,N/A,,Clear,150,2012-11-15 22:15:00
3:35 PM,44.6,19.4,37,30.15,10.0,SSE,15.0,-,N/A,,Clear,150,2012-11-15 22:35:00
3:55 PM,44.6,23.0,43,30.15,10.0,SSE,12.7,-,N/A,,Clear,150,2012-11-15 22:55:00
4:15 PM,42.8,24.8,49,30.15,10.0,SSE,11.5,-,N/A,,Clear,150,2012-11-15 23:15:00
4:35 PM,39.2,26.6,61,30.15,10.0,SSE,12.7,-,N/A,,Clear,150,2012-11-15 23:35:00
4:55 PM,37.4,26.6,65,30.15,10.0,SSE,10.4,-,N/A,,Clear,160,2012-11-15 23:55:00
5:15 PM,37.4,24.8,60,30.15,10.0,SSE,12.7,-,N/A,,Clear,160,2012-11-16 00:15:00
5:55 PM,35.6,23.0,60,30.16,10.0,North,3.5,-,N/A,,Clear,10,2012-11-16 00:55:00
6:15 PM,35.6,21.2,56,30.16,10.0,Calm,Calm,-,N/A,,Clear,0,2012-11-16 01:15:00
6:35 PM,33.8,21.2,60,30.15,10.0,SSE,4.6,-,N/A,,Clear,150,2012-11-16 01:35:00
6:55 PM,33.8,21.2,60,30.16,10.0,SSW,5.8,-,N/A,,Clear,210,2012-11-16 01:55:00
7:15 PM,33.8,17.6,52,30.15,10.0,ENE,4.6,-,N/A,,Clear,70,2012-11-16 02:15:00
7:35 PM,30.2,24.8,80,30.15,10.0,SSW,3.5,-,N/A,,Clear,210,2012-11-16 02:35:00
7:55 PM,30.2,21.2,69,30.15,10.0,Calm,Calm,-,N/A,,Clear,0,2012-11-16 02:55:00
8:15 PM,26.6,21.2,80,30.15,10.0,Calm,Calm,-,N/A,,Clear,0,2012-11-16 03:15:00
8:35 PM,28.4,21.2,74,30.14,10.0,South,6.9,-,N/A,,Clear,180,2012-11-16 03:35:00
8:55 PM,35.6,17.6,48,30.14,10.0,SSW,11.5,-,N/A,,Clear,200,2012-11-16 03:55:00
9:15 PM,35.6,15.8,44,30.14,10.0,SSW,16.1,-,N/A,,Clear,210,2012-11-16 04:15:00
9:35 PM,37.4,15.8,41,30.13,10.0,South,15.0,-,N/A,,Clear,190,2012-11-16 04:35:00
9:55 PM,37.4,15.8,41,30.13,10.0,SSW,15.0,-,N/A,,Clear,200,2012-11-16 04:55:00
10:15 PM,37.4,15.8,41,30.12,10.0,South,10.4,-,N/A,,Clear,170,2012-11-16 05:15:00
10:35 PM,39.2,17.6,42,30.12,10.0,SE,4.6,-,N/A,,Clear,140,2012-11-16 05:35:00
10:55 PM,37.4,15.8,41,30.12,10.0,South,6.9,-,N/A,,Clear,180,2012-11-16 05:55:00
11:15 PM,33.8,15.8,48,30.11,10.0,SSE,9.2,-,N/A,,Clear,160,2012-11-16 06:15:00
11:35 PM,35.6,15.8,44,30.11,10.0,SE,11.5,-,N/A,,Clear,130,2012-11-16 06:35:00
11:55 PM,33.8,15.8,48,30.11,10.0,SSE,8.1,-,N/A,,Clear,150,2012-11-16 06:55:00